^^
Datos históricos de la estación: Murcia-Puente Tocinos
Diario Informe para Julio 15, 2019 Unidades:  Métrico    Inglés   Ambas
Diario Semanal Mensual Anual Configurable
  Máximo: Mínimo: Media:
Temperatura: 39.6 °C 23.9 °C 29.3 °C
Punto de rocio: 22.6 °C 12.1 °C 19.5 °C
Humedad: 86% 20% 62%
Velocidad viento: 23.3km/h 0.0km/h 9.5km/h
Racha viento: 40.7km/h - -
Viento- - SSE
Presión: 1010.9 hPa 1006.0 hPa -
Precipitación: 0.0 mm    
Historical Graphs
 
 
Tabla de datos para Julio 15, 2019
Hora Temperatura Punto de rocio Presión Viento Velocidad viento Racha viento Humedad Intensidad lluvia(por hora) Nubes
00:00 25.7 °C 21.4 °C 1010.1 hPa NE 12.9 km/h 20.9 km/h 77% 0.0 mm CLR
00:04 25.6 °C 21.3 °C 1010.1 hPa NE 13.7 km/h 16.7 km/h 77% 0.0 mm CLR
00:10 25.6 °C 21.5 °C 1010.1 hPa NE 12.9 km/h 17.7 km/h 78% 0.0 mm CLR
00:14 25.6 °C 21.5 °C 1010.1 hPa NNE 13.0 km/h 19.8 km/h 78% 0.0 mm CLR
00:19 25.5 °C 21.4 °C 1010.1 hPa NE 11.1 km/h 16.7 km/h 78% 0.0 mm CLR
00:24 25.5 °C 21.4 °C 1010.1 hPa NE 11.1 km/h 13.0 km/h 78% 0.0 mm CLR
00:29 25.4 °C 21.3 °C 1010.1 hPa East 9.5 km/h 11.9 km/h 78% 0.0 mm CLR
00:34 25.4 °C 21.5 °C 1010.1 hPa East 9.5 km/h 13.0 km/h 79% 0.0 mm CLR
00:39 25.3 °C 21.4 °C 1010.1 hPa NE 9.5 km/h 14.8 km/h 79% 0.0 mm CLR
00:44 25.3 °C 21.4 °C 1010.1 hPa NE 9.5 km/h 11.1 km/h 79% 0.0 mm CLR
00:50 25.3 °C 21.4 °C 1010.2 hPa NE 9.7 km/h 14.5 km/h 79% 0.0 mm CLR
00:55 25.3 °C 21.4 °C 1010.2 hPa NE 9.7 km/h 16.1 km/h 79% 0.0 mm CLR
00:59 25.2 °C 21.3 °C 1010.2 hPa NE 9.5 km/h 14.8 km/h 79% 0.0 mm CLR
01:04 25.2 °C 21.3 °C 1010.2 hPa NE 9.5 km/h 10.0 km/h 79% 0.0 mm CLR
01:10 25.2 °C 21.5 °C 1010.2 hPa NE 8.0 km/h 12.9 km/h 80% 0.0 mm CLR
01:14 25.2 °C 21.5 °C 1010.2 hPa East 7.6 km/h 7.4 km/h 80% 0.0 mm CLR
01:20 25.2 °C 21.5 °C 1010.3 hPa NE 4.8 km/h 8.0 km/h 80% 0.0 mm CLR
01:24 25.2 °C 21.5 °C 1010.3 hPa NE 5.8 km/h 9.3 km/h 80% 0.0 mm CLR
01:30 25.2 °C 21.5 °C 1010.3 hPa NE 4.8 km/h 11.3 km/h 80% 0.0 mm CLR
01:35 25.1 °C 21.4 °C 1010.2 hPa NE 4.8 km/h 11.3 km/h 80% 0.0 mm CLR
01:39 25.1 °C 21.4 °C 1010.2 hPa NE 6.9 km/h 9.3 km/h 80% 0.0 mm CLR
01:45 25.1 °C 21.4 °C 1010.2 hPa NE 8.0 km/h 9.7 km/h 80% 0.0 mm CLR
01:50 25.1 °C 21.4 °C 1010.1 hPa NE 4.8 km/h 8.0 km/h 80% 0.0 mm CLR
01:55 25.1 °C 21.4 °C 1010.1 hPa NE 4.8 km/h 9.7 km/h 80% 0.0 mm CLR
01:59 24.9 °C 21.2 °C 1010.1 hPa NNE 5.0 km/h 7.4 km/h 80% 0.0 mm CLR
02:05 24.9 °C 21.4 °C 1010.0 hPa NNE 5.0 km/h 5.6 km/h 81% 0.0 mm CLR
02:10 24.9 °C 21.4 °C 1010.0 hPa NNE 4.7 km/h 9.3 km/h 81% 0.0 mm CLR
02:15 24.9 °C 21.4 °C 1010.0 hPa NE 3.2 km/h 9.7 km/h 81% 0.0 mm CLR
02:20 24.9 °C 21.4 °C 1009.9 hPa NE 4.8 km/h 8.0 km/h 81% 0.0 mm CLR
02:25 24.9 °C 21.4 °C 1009.9 hPa NE 4.8 km/h 9.7 km/h 81% 0.0 mm CLR
02:30 24.9 °C 21.4 °C 1009.9 hPa ENE 3.2 km/h 9.7 km/h 81% 0.0 mm CLR
02:35 24.9 °C 21.4 °C 1009.8 hPa NE 3.2 km/h 8.0 km/h 81% 0.0 mm CLR
02:39 24.9 °C 21.4 °C 1009.8 hPa ENE 4.7 km/h 7.4 km/h 81% 0.0 mm CLR
02:44 24.8 °C 21.3 °C 1009.8 hPa NE 4.7 km/h 5.6 km/h 81% 0.0 mm CLR
02:49 24.8 °C 21.3 °C 1009.6 hPa ENE 2.9 km/h 5.6 km/h 81% 0.0 mm CLR
02:55 24.8 °C 21.3 °C 1009.6 hPa NE 3.2 km/h 8.0 km/h 81% 0.0 mm CLR
02:59 24.8 °C 21.3 °C 1009.6 hPa NE 3.2 km/h 5.8 km/h 81% 0.0 mm CLR
03:04 24.8 °C 21.5 °C 1009.6 hPa NNW 3.2 km/h 5.6 km/h 82% 0.0 mm CLR
03:09 24.7 °C 21.4 °C 1009.6 hPa NNW 3.9 km/h 5.8 km/h 82% 0.0 mm CLR
03:14 24.7 °C 21.4 °C 1009.6 hPa NNW 3.9 km/h 5.8 km/h 82% 0.0 mm CLR
03:19 24.7 °C 21.4 °C 1009.6 hPa NNW 4.7 km/h 5.6 km/h 82% 0.0 mm CLR
03:24 24.7 °C 21.4 °C 1009.6 hPa NNW 4.7 km/h 5.6 km/h 82% 0.0 mm CLR
03:29 24.7 °C 21.4 °C 1009.6 hPa NNW 3.2 km/h 7.4 km/h 82% 0.0 mm CLR
03:35 24.7 °C 21.4 °C 1009.5 hPa NNW 3.2 km/h 6.4 km/h 82% 0.0 mm CLR
03:39 24.7 °C 21.4 °C 1009.5 hPa NNW 2.9 km/h 3.7 km/h 82% 0.0 mm CLR
03:45 24.7 °C 21.6 °C 1009.5 hPa NNW 3.2 km/h 4.8 km/h 83% 0.0 mm CLR
03:49 24.7 °C 21.6 °C 1009.5 hPa NNW 2.3 km/h 3.7 km/h 83% 0.0 mm CLR
03:54 24.7 °C 21.6 °C 1009.5 hPa NNW 2.3 km/h 5.6 km/h 83% 0.0 mm CLR
03:59 24.7 °C 21.6 °C 1009.5 hPa NNW 2.9 km/h 5.0 km/h 83% 0.0 mm CLR
04:04 24.7 °C 21.4 °C 1009.4 hPa NNW 2.9 km/h 5.0 km/h 82% 0.0 mm CLR
04:09 24.6 °C 21.5 °C 1009.4 hPa NNW 3.2 km/h 5.8 km/h 83% 0.0 mm CLR
04:14 24.6 °C 21.5 °C 1009.4 hPa NNW 3.2 km/h 3.7 km/h 83% 0.0 mm CLR
04:19 24.6 °C 21.5 °C 1009.4 hPa NNW 2.3 km/h 5.6 km/h 83% 0.0 mm CLR
04:24 24.6 °C 21.5 °C 1009.4 hPa NNW 2.3 km/h 3.7 km/h 83% 0.0 mm CLR
04:30 24.6 °C 21.5 °C 1009.4 hPa NNW 1.6 km/h 1.6 km/h 83% 0.0 mm CLR
04:35 24.6 °C 21.5 °C 1009.3 hPa NNW 1.6 km/h   83% 0.0 mm CLR
04:39 24.6 °C 21.5 °C 1009.3 hPa Calm     83% 0.0 mm CLR
04:45 24.6 °C 21.5 °C 1009.3 hPa Calm     83% 0.0 mm CLR
04:50 24.6 °C 21.5 °C 1009.2 hPa Calm   4.8 km/h 83% 0.0 mm CLR
04:54 24.6 °C 21.5 °C 1009.2 hPa Calm   5.0 km/h 83% 0.0 mm CLR
04:59 24.6 °C 21.7 °C 1009.2 hPa NNW 2.3 km/h 3.7 km/h 84% 0.0 mm CLR
05:04 24.6 °C 21.7 °C 1009.2 hPa NNW 2.3 km/h 3.7 km/h 84% 0.0 mm CLR
05:09 24.6 °C 21.7 °C 1009.2 hPa NNW 2.3 km/h 5.6 km/h 84% 0.0 mm CLR
05:15 24.5 °C 21.4 °C 1009.2 hPa NNW 1.6 km/h 6.4 km/h 83% 0.0 mm CLR
05:19 24.5 °C 21.6 °C 1009.1 hPa NNW 3.2 km/h 3.7 km/h 84% 0.0 mm CLR
05:24 24.4 °C 21.5 °C 1009.1 hPa NNW 3.2 km/h   84% 0.0 mm CLR
05:29 24.4 °C 21.5 °C 1009.1 hPa Calm   3.7 km/h 84% 0.0 mm CLR
05:34 24.4 °C 21.5 °C 1009.1 hPa Calm   6.4 km/h 84% 0.0 mm CLR
05:40 24.4 °C 21.5 °C 1009.1 hPa NNW 3.2 km/h 8.0 km/h 84% 0.0 mm CLR
05:44 24.4 °C 21.5 °C 1009.1 hPa NW 2.9 km/h 5.6 km/h 84% 0.0 mm CLR
05:50 24.4 °C 21.5 °C 1009.2 hPa NW 1.6 km/h 4.8 km/h 84% 0.0 mm CLR
05:54 24.4 °C 21.5 °C 1009.2 hPa NW 2.3 km/h 3.7 km/h 84% 0.0 mm CLR
05:59 24.4 °C 21.5 °C 1009.2 hPa NW 2.3 km/h 5.6 km/h 84% 0.0 mm CLR
06:04 24.4 °C 21.5 °C 1009.2 hPa NW 2.3 km/h 3.7 km/h 84% 0.0 mm CLR
06:09 24.4 °C 21.7 °C 1009.2 hPa Calm     85% 0.0 mm CLR
06:14 24.4 °C 21.7 °C 1009.2 hPa Calm     85% 0.0 mm CLR
06:19 24.4 °C 21.7 °C 1009.2 hPa Calm   3.7 km/h 85% 0.0 mm CLR
06:25 24.4 °C 21.7 °C 1009.2 hPa Calm   4.8 km/h 85% 0.0 mm
06:30 24.4 °C 21.7 °C 1009.2 hPa NW 1.6 km/h 4.8 km/h 85% 0.0 mm
06:34 24.4 °C 21.7 °C 1009.3 hPa NW 2.3 km/h   85% 0.0 mm CLR
06:39 24.3 °C 21.8 °C 1009.3 hPa NW 2.3 km/h 4.7 km/h 86% 0.0 mm CLR
06:44 24.3 °C 21.8 °C 1009.3 hPa NW 2.3 km/h 2.9 km/h 86% 0.0 mm CLR
06:49 24.3 °C 21.6 °C 1009.4 hPa ESE 2.3 km/h 7.4 km/h 85% 0.0 mm CLR
06:54 24.2 °C 21.5 °C 1009.4 hPa ESE 2.3 km/h 5.6 km/h 85% 0.0 mm CLR
07:00 24.1 °C 21.4 °C 1009.4 hPa ESE 3.2 km/h 8.0 km/h 85% 0.0 mm
07:04 23.9 °C 21.2 °C 1009.4 hPa ESE 3.9 km/h 3.7 km/h 85% 0.0 mm CLR
07:09 23.9 °C 21.2 °C 1009.4 hPa ESE 3.2 km/h 3.7 km/h 85% 0.0 mm CLR
07:14 23.9 °C 21.1 °C 1009.4 hPa ESE 3.2 km/h 5.6 km/h 84% 0.0 mm CLR
07:19 23.9 °C 21.1 °C 1009.4 hPa ESE 3.2 km/h 5.6 km/h 84% 0.0 mm CLR
07:24 23.9 °C 21.2 °C 1009.4 hPa ESE 3.2 km/h 5.6 km/h 85% 0.0 mm CLR
07:30 23.9 °C 21.2 °C 1009.4 hPa ESE 3.2 km/h 8.0 km/h 85% 0.0 mm
07:34 24.1 °C 21.4 °C 1009.5 hPa ESE 2.9 km/h 7.4 km/h 85% 0.0 mm CLR
07:39 24.2 °C 21.5 °C 1009.5 hPa ESE 3.9 km/h 7.4 km/h 85% 0.0 mm CLR
07:44 24.4 °C 21.7 °C 1009.5 hPa ESE 3.9 km/h 5.6 km/h 85% 0.0 mm CLR
07:50 24.6 °C 21.9 °C 1009.6 hPa ESE 3.2 km/h 4.8 km/h 85% 0.0 mm
07:54 24.6 °C 21.7 °C 1009.6 hPa ESE 3.2 km/h 3.7 km/h 84% 0.0 mm CLR
08:00 24.7 °C 21.8 °C 1009.6 hPa ESE 3.2 km/h 8.0 km/h 84% 0.0 mm CLR
08:04 24.6 °C 21.5 °C 1009.5 hPa ESE 2.9 km/h 7.4 km/h 83% 0.0 mm CLR
08:09 24.5 °C 21.6 °C 1009.5 hPa ESE 4.7 km/h 5.6 km/h 84% 0.0 mm CLR
08:14 24.4 °C 21.5 °C 1009.5 hPa ESE 4.7 km/h 7.4 km/h 84% 0.0 mm CLR
08:19 24.4 °C 21.5 °C 1009.6 hPa East 3.2 km/h 3.9 km/h 84% 0.0 mm CLR
08:25 24.6 °C 21.9 °C 1009.6 hPa ENE 3.2 km/h 8.0 km/h 85% 0.0 mm
08:29 24.6 °C 21.9 °C 1009.6 hPa ENE 2.9 km/h   85% 0.0 mm CLR
08:35 24.7 °C 22.0 °C 1009.7 hPa NNE 3.2 km/h 8.0 km/h 85% 0.0 mm
08:39 24.7 °C 22.0 °C 1009.7 hPa North 2.3 km/h 5.6 km/h 85% 0.0 mm CLR
08:44 24.8 °C 21.9 °C 1009.7 hPa North 2.3 km/h 3.7 km/h 84% 0.0 mm CLR
08:49 24.8 °C 21.9 °C 1009.7 hPa NNW 2.9 km/h 5.6 km/h 84% 0.0 mm CLR
08:54 24.8 °C 21.9 °C 1009.7 hPa NNW 2.9 km/h   84% 0.0 mm CLR
09:00 24.8 °C 21.9 °C 1009.7 hPa NNW 1.6 km/h 6.4 km/h 84% 0.0 mm CLR
09:04 24.8 °C 21.9 °C 1009.7 hPa East 2.3 km/h 7.4 km/h 84% 0.0 mm CLR
09:09 24.8 °C 21.9 °C 1009.7 hPa East 4.7 km/h 7.4 km/h 84% 0.0 mm CLR
09:14 24.9 °C 22.0 °C 1009.7 hPa ENE 4.7 km/h 7.4 km/h 84% 0.0 mm CLR
09:19 24.9 °C 22.0 °C 1009.7 hPa ENE 3.9 km/h 2.3 km/h 84% 0.0 mm CLR
09:24 25.1 °C 22.0 °C 1009.7 hPa WNW 3.9 km/h 5.6 km/h 83% 0.0 mm CLR
09:29 25.3 °C 22.0 °C 1009.7 hPa ESE 2.3 km/h 2.3 km/h 82% 0.0 mm CLR
09:35 25.4 °C 21.9 °C 1009.7 hPa WSW 1.6 km/h 9.7 km/h 81% 0.0 mm CLR
09:39 25.5 °C 21.8 °C 1009.7 hPa SSW 4.7 km/h 7.4 km/h 80% 0.0 mm CLR
09:44 25.6 °C 21.9 °C 1009.7 hPa SSW 4.7 km/h 5.8 km/h 80% 0.0 mm CLR
09:49 25.8 °C 21.9 °C 1009.7 hPa SSE 3.9 km/h 5.6 km/h 79% 0.0 mm CLR
09:54 26.0 °C 21.9 °C 1009.7 hPa SW 3.9 km/h 3.7 km/h 78% 0.0 mm CLR
09:59 26.3 °C 21.9 °C 1009.7 hPa West 3.2 km/h 5.6 km/h 77% 0.0 mm CLR
10:05 26.6 °C 22.0 °C 1009.6 hPa WSW 3.2 km/h 8.0 km/h 76% 0.0 mm CLR
10:09 26.8 °C 22.0 °C 1009.6 hPa SE 3.2 km/h 3.7 km/h 75% 0.0 mm CLR
10:14 27.1 °C 22.1 °C 1009.6 hPa West 3.2 km/h 7.4 km/h 74% 0.0 mm CLR
10:19 27.1 °C 21.8 °C 1009.6 hPa West 4.7 km/h 13.0 km/h 73% 0.0 mm CLR
10:24 26.9 °C 21.7 °C 1009.6 hPa WNW 4.7 km/h 7.4 km/h 73% 0.0 mm CLR
10:29 27.0 °C 21.5 °C 1009.6 hPa WNW 6.4 km/h 9.3 km/h 72% 0.0 mm CLR
10:34 27.0 °C 21.5 °C 1009.6 hPa SSE 6.4 km/h 9.3 km/h 72% 0.0 mm CLR
10:39 27.3 °C 21.3 °C 1009.6 hPa West 5.8 km/h 7.4 km/h 70% 0.0 mm CLR
10:44 27.4 °C 21.2 °C 1009.6 hPa WNW 5.8 km/h 9.3 km/h 69% 0.0 mm CLR
10:49 27.7 °C 21.3 °C 1009.5 hPa SW 5.0 km/h 7.4 km/h 68% 0.0 mm CLR
10:54 27.8 °C 21.1 °C 1009.5 hPa West 5.0 km/h 9.3 km/h 67% 0.0 mm CLR
10:59 28.1 °C 20.9 °C 1009.5 hPa SW 5.0 km/h 8.7 km/h 65% 0.0 mm CLR
11:04 28.2 °C 20.5 °C 1009.4 hPa South 5.0 km/h 7.4 km/h 63% 0.0 mm CLR
11:09 28.4 °C 20.4 °C 1009.4 hPa WSW 5.0 km/h 7.4 km/h 62% 0.0 mm CLR
11:14 28.6 °C 20.3 °C 1009.4 hPa SSE 5.0 km/h 14.8 km/h 61% 0.0 mm CLR
11:20 28.8 °C 20.5 °C 1009.3 hPa SSE 8.0 km/h 9.7 km/h 61% 0.0 mm CLR
11:24 29.0 °C 20.7 °C 1009.3 hPa ESE 6.4 km/h 7.4 km/h 61% 0.0 mm CLR
11:29 29.2 °C 20.1 °C 1009.3 hPa SSW 5.0 km/h 8.4 km/h 58% 0.0 mm CLR
11:34 29.3 °C 19.9 °C 1009.1 hPa SW 5.0 km/h 13.0 km/h 57% 0.0 mm CLR
11:40 29.3 °C 20.2 °C 1009.1 hPa SW 8.0 km/h 11.3 km/h 58% 0.0 mm CLR
11:44 29.7 °C 20.3 °C 1009.1 hPa SSE 6.4 km/h 14.0 km/h 57% 0.0 mm CLR
11:49 29.9 °C 20.2 °C 1009.1 hPa WSW 7.6 km/h 11.1 km/h 56% 0.0 mm CLR
11:54 30.1 °C 20.1 °C 1009.1 hPa SW 7.6 km/h 16.1 km/h 55% 0.0 mm CLR
11:59 30.1 °C 19.8 °C 1009.1 hPa ESE 6.9 km/h 9.3 km/h 54% 0.0 mm CLR
12:05 30.3 °C 19.7 °C 1008.9 hPa SSW 8.0 km/h 12.9 km/h 53% 0.0 mm CLR
12:09 30.4 °C 19.7 °C 1008.9 hPa SSW 6.9 km/h 13.7 km/h 53% 0.0 mm CLR
12:14 30.5 °C 19.6 °C 1008.9 hPa SSE 6.9 km/h 13.0 km/h 52% 0.0 mm CLR
12:19 30.7 °C 19.4 °C 1008.9 hPa SSW 8.4 km/h 11.1 km/h 51% 0.0 mm CLR
12:24 31.0 °C 19.7 °C 1008.9 hPa SSW 8.4 km/h 8.4 km/h 51% 0.0 mm CLR
12:29 31.4 °C 19.4 °C 1008.9 hPa SSW 8.4 km/h 14.8 km/h 49% 0.0 mm CLR
12:34 31.6 °C 19.3 °C 1008.8 hPa SSW 8.4 km/h 13.0 km/h 48% 0.0 mm CLR
12:39 31.7 °C 19.0 °C 1008.8 hPa NW 9.5 km/h 11.1 km/h 47% 0.0 mm CLR
12:44 32.0 °C 18.9 °C 1008.8 hPa WSW 9.5 km/h 13.0 km/h 46% 0.0 mm CLR
12:49 32.3 °C 18.5 °C 1008.5 hPa SW 6.4 km/h 8.4 km/h 44% 0.0 mm CLR
12:54 32.5 °C 18.3 °C 1008.5 hPa ENE 6.4 km/h 5.6 km/h 43% 0.0 mm CLR
12:59 32.9 °C 18.3 °C 1008.5 hPa WNW 5.8 km/h 9.3 km/h 42% 0.0 mm CLR
13:04 33.1 °C 18.1 °C 1008.3 hPa South 5.8 km/h 5.8 km/h 41% 0.0 mm CLR
13:09 33.3 °C 17.9 °C 1008.3 hPa West 6.4 km/h 9.3 km/h 40% 0.0 mm CLR
13:14 33.6 °C 18.1 °C 1008.3 hPa SSE 6.4 km/h 9.3 km/h 40% 0.0 mm CLR
13:19 33.7 °C 17.8 °C 1008.1 hPa ESE 5.8 km/h 7.4 km/h 39% 0.0 mm CLR
13:24 33.9 °C 18.0 °C 1008.1 hPa NW 5.8 km/h 5.8 km/h 39% 0.0 mm CLR
13:29 34.3 °C 17.9 °C 1008.1 hPa East 5.0 km/h 7.4 km/h 38% 0.0 mm CLR
13:34 34.7 °C 17.4 °C 1007.9 hPa SSW 5.0 km/h 10.3 km/h 36% 0.0 mm CLR
13:39 34.8 °C 17.1 °C 1007.9 hPa SW 6.4 km/h 11.1 km/h 35% 0.0 mm CLR
13:44 34.9 °C 16.7 °C 1007.9 hPa SSE 6.4 km/h 3.7 km/h 34% 0.0 mm CLR
13:49 35.2 °C 16.5 °C 1007.7 hPa SSE 6.4 km/h 13.0 km/h 33% 0.0 mm CLR
13:54 35.5 °C 15.3 °C 1007.7 hPa WNW 6.4 km/h 9.5 km/h 30% 0.0 mm CLR
13:59 35.8 °C 15.0 °C 1007.7 hPa SSW 8.7 km/h 25.9 km/h 29% 0.0 mm CLR
14:05 36.1 °C 15.2 °C 1007.2 hPa SSW 9.7 km/h 22.5 km/h 29% 0.0 mm CLR
14:09 36.6 °C 14.0 °C 1007.2 hPa WNW 13.0 km/h 24.1 km/h 26% 0.0 mm CLR
14:14 36.9 °C 14.2 °C 1007.2 hPa WNW 13.0 km/h 16.7 km/h 26% 0.0 mm CLR
14:19 37.3 °C 13.9 °C 1007.1 hPa WNW 13.0 km/h 25.9 km/h 25% 0.0 mm CLR
14:24 37.3 °C 13.9 °C 1007.1 hPa NNW 13.0 km/h 29.6 km/h 25% 0.0 mm CLR
14:29 37.3 °C 13.9 °C 1007.1 hPa West 12.2 km/h 18.0 km/h 25% 0.0 mm CLR
14:34 37.2 °C 13.3 °C 1007.0 hPa West 12.2 km/h 25.9 km/h 24% 0.0 mm CLR
14:39 37.4 °C 13.4 °C 1007.0 hPa WNW 18.0 km/h 27.8 km/h 24% 0.0 mm CLR
14:44 37.3 °C 12.7 °C 1007.0 hPa NW 18.0 km/h 24.1 km/h 23% 0.0 mm CLR
14:49 37.4 °C 13.4 °C 1006.8 hPa WNW 14.0 km/h 9.3 km/h 24% 0.0 mm CLR
14:54 37.7 °C 13.0 °C 1006.8 hPa West 14.0 km/h 24.1 km/h 23% 0.0 mm CLR
14:59 37.8 °C 13.1 °C 1006.8 hPa WNW 16.1 km/h 25.9 km/h 23% 0.0 mm CLR
15:04 37.9 °C 12.5 °C 1006.8 hPa NW 16.1 km/h 24.1 km/h 22% 0.0 mm CLR
15:09 38.1 °C 12.7 °C 1006.8 hPa WNW 16.1 km/h 20.1 km/h 22% 0.0 mm CLR
15:14 38.3 °C 12.8 °C 1006.8 hPa West 16.1 km/h 23.7 km/h 22% 0.0 mm CLR
15:19 38.5 °C 13.0 °C 1006.6 hPa NW 14.8 km/h 25.9 km/h 22% 0.0 mm CLR
15:24 38.6 °C 12.4 °C 1006.6 hPa NW 14.8 km/h 18.5 km/h 21% 0.0 mm CLR
15:29 38.4 °C 12.2 °C 1006.6 hPa WNW 12.2 km/h 31.7 km/h 21% 0.0 mm CLR
15:34 38.3 °C 12.1 °C 1006.5 hPa WNW 12.2 km/h 18.5 km/h 21% 0.0 mm CLR
15:39 38.5 °C 12.3 °C 1006.5 hPa NNW 13.7 km/h 20.4 km/h 21% 0.0 mm CLR
15:44 38.7 °C 12.4 °C 1006.5 hPa North 13.7 km/h 24.1 km/h 21% 0.0 mm CLR
15:49 38.8 °C 13.3 °C 1006.3 hPa NW 14.8 km/h 14.8 km/h 22% 0.0 mm CLR
15:54 39.1 °C 12.8 °C 1006.3 hPa WNW 14.8 km/h 24.1 km/h 21% 0.0 mm CLR
15:59 39.2 °C 12.9 °C 1006.3 hPa NNW 10.0 km/h 11.1 km/h 21% 0.0 mm CLR
16:04 39.2 °C 12.9 °C 1006.2 hPa NW 10.0 km/h 18.5 km/h 21% 0.0 mm CLR
16:09 39.3 °C 12.2 °C 1006.2 hPa NW 11.1 km/h 27.8 km/h 20% 0.0 mm CLR
16:14 39.3 °C 12.9 °C 1006.2 hPa NNW 11.1 km/h 8.7 km/h 21% 0.0 mm CLR
16:19 39.4 °C 12.3 °C 1006.1 hPa NNE 10.0 km/h 25.9 km/h 20% 0.0 mm CLR
16:24 39.3 °C 12.2 °C 1006.1 hPa WNW 10.0 km/h 18.5 km/h 20% 0.0 mm CLR
16:29 39.2 °C 12.9 °C 1006.1 hPa NW 14.0 km/h 26.2 km/h 21% 0.0 mm CLR
16:34 39.3 °C 12.9 °C 1006.0 hPa NW 14.0 km/h 16.7 km/h 21% 0.0 mm CLR
16:39 39.4 °C 13.1 °C 1006.0 hPa NW 11.1 km/h 18.5 km/h 21% 0.0 mm CLR
16:44 39.4 °C 13.1 °C 1006.0 hPa WNW 11.1 km/h 20.4 km/h 21% 0.0 mm CLR
16:49 39.6 °C 12.4 °C 1006.0 hPa West 12.2 km/h 14.8 km/h 20% 0.0 mm CLR
16:54 39.2 °C 13.6 °C 1006.0 hPa West 12.2 km/h 13.0 km/h 22% 0.0 mm CLR
16:59 38.6 °C 15.7 °C 1006.0 hPa SE 10.3 km/h 25.9 km/h 26% 0.0 mm CLR
17:04 38.1 °C 15.8 °C 1006.0 hPa ESE 10.3 km/h 21.7 km/h 27% 0.0 mm CLR
17:09 37.6 °C 16.0 °C 1006.0 hPa ESE 14.8 km/h 20.4 km/h 28% 0.0 mm CLR
17:14 37.3 °C 15.7 °C 1006.0 hPa SE 14.8 km/h 18.5 km/h 28% 0.0 mm CLR
17:19 37.4 °C 15.8 °C 1006.1 hPa SW 10.3 km/h 14.8 km/h 28% 0.0 mm CLR
17:24 37.3 °C 15.7 °C 1006.1 hPa ESE 10.3 km/h 25.9 km/h 28% 0.0 mm CLR
17:29 37.2 °C 15.1 °C 1006.1 hPa South 12.2 km/h 22.2 km/h 27% 0.0 mm CLR
17:34 37.1 °C 15.0 °C 1006.1 hPa South 12.2 km/h 28.2 km/h 27% 0.0 mm CLR
17:39 36.9 °C 14.2 °C 1006.1 hPa SSE 16.4 km/h 24.5 km/h 26% 0.0 mm CLR
17:44 36.9 °C 14.2 °C 1006.1 hPa SSE 16.4 km/h 25.9 km/h 26% 0.0 mm CLR
17:49 37.1 °C 15.0 °C 1006.1 hPa SSE 16.1 km/h 25.9 km/h 27% 0.0 mm CLR
17:54 37.3 °C 15.2 °C 1006.1 hPa SSW 16.1 km/h 29.6 km/h 27% 0.0 mm CLR
17:59 37.3 °C 15.2 °C 1006.1 hPa SSE 14.8 km/h 18.5 km/h 27% 0.0 mm CLR
18:04 37.4 °C 15.2 °C 1006.1 hPa SSE 14.8 km/h 24.1 km/h 27% 0.0 mm CLR
18:09 37.4 °C 15.2 °C 1006.1 hPa SSE 16.4 km/h 20.4 km/h 27% 0.0 mm CLR
18:14 37.4 °C 14.7 °C 1006.1 hPa South 16.4 km/h 33.3 km/h 26% 0.0 mm CLR
18:19 37.1 °C 15.0 °C 1006.1 hPa ESE 19.8 km/h 25.9 km/h 27% 0.0 mm CLR
18:24 37.2 °C 15.1 °C 1006.1 hPa ESE 19.8 km/h 27.8 km/h 27% 0.0 mm CLR
18:29 37.3 °C 14.6 °C 1006.1 hPa SSE 18.0 km/h 22.2 km/h 26% 0.0 mm CLR
18:34 37.4 °C 14.7 °C 1006.2 hPa SSE 18.0 km/h 22.2 km/h 26% 0.0 mm CLR
18:39 37.5 °C 14.7 °C 1006.2 hPa SE 13.0 km/h 20.4 km/h 26% 0.0 mm CLR
18:44 37.4 °C 14.7 °C 1006.2 hPa SW 13.0 km/h 18.5 km/h 26% 0.0 mm CLR
18:49 37.5 °C 14.7 °C 1006.2 hPa SSE 13.7 km/h 28.6 km/h 26% 0.0 mm CLR
18:54 37.2 °C 14.5 °C 1006.2 hPa SSE 13.7 km/h 25.9 km/h 26% 0.0 mm CLR
18:59 36.9 °C 14.2 °C 1006.2 hPa SE 19.8 km/h 27.8 km/h 26% 0.0 mm CLR
19:04 36.8 °C 14.2 °C 1006.3 hPa South 19.8 km/h 28.2 km/h 26% 0.0 mm CLR
19:09 36.8 °C 14.2 °C 1006.3 hPa SSE 19.0 km/h 24.1 km/h 26% 0.0 mm CLR
19:14 36.8 °C 14.2 °C 1006.3 hPa SE 19.0 km/h 22.2 km/h 26% 0.0 mm CLR
19:19 36.7 °C 14.1 °C 1006.3 hPa South 14.0 km/h 22.0 km/h 26% 0.0 mm CLR
19:24 36.6 °C 14.0 °C 1006.3 hPa South 14.0 km/h 25.9 km/h 26% 0.0 mm CLR
19:29 36.6 °C 14.0 °C 1006.3 hPa SSE 14.8 km/h 25.1 km/h 26% 0.0 mm CLR
19:34 36.6 °C 14.0 °C 1006.5 hPa ESE 14.8 km/h 13.0 km/h 26% 0.0 mm CLR
19:39 36.6 °C 17.2 °C 1006.5 hPa NNE 10.3 km/h 13.0 km/h 32% 0.0 mm CLR
19:44 35.3 °C 19.7 °C 1006.5 hPa NE 10.3 km/h 24.1 km/h 40% 0.0 mm CLR
19:49 33.2 °C 20.0 °C 1006.7 hPa NNE 13.7 km/h 36.2 km/h 46% 0.0 mm CLR
19:54 31.8 °C 20.4 °C 1006.7 hPa ENE 13.7 km/h 27.8 km/h 51% 0.0 mm CLR
19:59 31.3 °C 20.3 °C 1006.7 hPa NNE 20.9 km/h 20.9 km/h 52% 0.0 mm CLR
20:04 31.1 °C 20.7 °C 1007.0 hPa NNW 20.9 km/h 27.8 km/h 54% 0.0 mm CLR
20:09 30.7 °C 20.9 °C 1007.0 hPa NE 18.3 km/h 31.7 km/h 56% 0.0 mm CLR
20:14 30.3 °C 21.4 °C 1007.0 hPa North 18.3 km/h 31.5 km/h 59% 0.0 mm CLR
20:19 29.7 °C 21.4 °C 1007.4 hPa NE 21.7 km/h 29.6 km/h 61% 0.0 mm CLR
20:24 29.2 °C 21.4 °C 1007.4 hPa NNE 21.7 km/h 27.8 km/h 63% 0.0 mm CLR
20:29 29.1 °C 21.6 °C 1007.4 hPa NE 21.7 km/h 29.6 km/h 64% 0.0 mm CLR
20:34 28.9 °C 21.7 °C 1007.7 hPa NE 21.7 km/h 31.5 km/h 65% 0.0 mm CLR
20:39 28.8 °C 21.8 °C 1007.7 hPa NNE 21.7 km/h 29.6 km/h 66% 0.0 mm CLR
20:44 28.7 °C 21.7 °C 1007.7 hPa NE 21.7 km/h 33.3 km/h 66% 0.0 mm CLR
20:49 28.6 °C 21.9 °C 1007.9 hPa ENE 20.1 km/h 29.6 km/h 67% 0.0 mm CLR
20:54 28.3 °C 21.8 °C 1007.9 hPa NE 20.1 km/h 33.3 km/h 68% 0.0 mm CLR
20:59 28.2 °C 21.7 °C 1007.9 hPa NE 21.7 km/h 25.9 km/h 68% 0.0 mm CLR
21:04 28.1 °C 21.6 °C 1008.1 hPa NE 21.7 km/h 37.0 km/h 68% 0.0 mm CLR
21:09 28.0 °C 21.8 °C 1008.1 hPa ENE 22.5 km/h 27.8 km/h 69% 0.0 mm CLR
21:14 27.8 °C 21.6 °C 1008.1 hPa ENE 22.5 km/h 33.3 km/h 69% 0.0 mm CLR
21:19 27.7 °C 21.7 °C 1008.3 hPa ENE 20.9 km/h 38.1 km/h 70% 0.0 mm CLR
21:24 27.4 °C 21.7 °C 1008.3 hPa NE 20.9 km/h 36.2 km/h 71% 0.0 mm CLR
21:29 27.3 °C 21.8 °C 1008.3 hPa NNE 23.3 km/h 33.3 km/h 72% 0.0 mm CLR
21:34 27.2 °C 21.9 °C 1008.5 hPa NE 23.3 km/h 37.0 km/h 73% 0.0 mm CLR
21:39 27.0 °C 21.9 °C 1008.5 hPa North 22.5 km/h 27.8 km/h 74% 0.0 mm CLR
21:44 26.9 °C 21.9 °C 1008.5 hPa ENE 22.5 km/h 40.7 km/h 74% 0.0 mm CLR
21:49 26.8 °C 22.0 °C 1008.8 hPa NE 22.5 km/h 37.0 km/h 75% 0.0 mm CLR
21:54 26.7 °C 22.1 °C 1008.8 hPa NNE 22.5 km/h 28.2 km/h 76% 0.0 mm CLR
21:59 26.6 °C 22.0 °C 1008.8 hPa NE 22.0 km/h 33.3 km/h 76% 0.0 mm CLR
22:04 26.5 °C 22.1 °C 1009.2 hPa NE 22.0 km/h 31.7 km/h 77% 0.0 mm CLR
22:09 26.4 °C 22.3 °C 1009.2 hPa NNE 22.5 km/h 24.1 km/h 78% 0.0 mm CLR
22:14 26.4 °C 22.3 °C 1009.2 hPa NNE 22.5 km/h 27.8 km/h 78% 0.0 mm CLR
22:19 26.3 °C 22.2 °C 1009.6 hPa NE 20.1 km/h 29.6 km/h 78% 0.0 mm CLR
22:24 26.2 °C 22.3 °C 1009.6 hPa ENE 20.1 km/h 33.3 km/h 79% 0.0 mm CLR
22:29 26.2 °C 22.3 °C 1009.6 hPa ENE 21.7 km/h 30.9 km/h 79% 0.0 mm CLR
22:34 26.2 °C 22.5 °C 1009.9 hPa ENE 21.7 km/h 29.6 km/h 80% 0.0 mm CLR
22:39 26.1 °C 22.4 °C 1009.9 hPa North 19.8 km/h 27.8 km/h 80% 0.0 mm CLR
22:44 26.1 °C 22.4 °C 1009.9 hPa ENE 19.8 km/h 27.0 km/h 80% 0.0 mm CLR
22:49 26.1 °C 22.6 °C 1010.1 hPa NE 18.3 km/h 29.6 km/h 81% 0.0 mm CLR
22:54 26.1 °C 22.6 °C 1010.1 hPa NNE 18.3 km/h 25.9 km/h 81% 0.0 mm CLR
22:59 26.1 °C 22.6 °C 1010.1 hPa NNE 16.4 km/h 22.0 km/h 81% 0.0 mm CLR
23:04 26.0 °C 22.5 °C 1010.4 hPa NE 16.4 km/h 27.8 km/h 81% 0.0 mm CLR
23:09 25.9 °C 22.4 °C 1010.4 hPa ENE 16.4 km/h 24.1 km/h 81% 0.0 mm CLR
23:14 25.9 °C 22.4 °C 1010.4 hPa NE 16.4 km/h 20.4 km/h 81% 0.0 mm CLR
23:19 25.9 °C 22.4 °C 1010.6 hPa NE 16.1 km/h 20.4 km/h 81% 0.0 mm CLR
23:24 25.9 °C 22.4 °C 1010.6 hPa NNW 16.1 km/h 18.5 km/h 81% 0.0 mm CLR
23:29 25.9 °C 22.4 °C 1010.6 hPa NE 14.8 km/h 24.1 km/h 81% 0.0 mm CLR
23:34 25.8 °C 22.3 °C 1010.7 hPa NNE 14.8 km/h 20.4 km/h 81% 0.0 mm CLR
23:39 25.8 °C 22.3 °C 1010.7 hPa NE 17.2 km/h 23.3 km/h 81% 0.0 mm CLR
23:44 25.8 °C 22.3 °C 1010.7 hPa NE 17.2 km/h 18.5 km/h 81% 0.0 mm CLR
23:49 25.8 °C 22.3 °C 1010.9 hPa ENE 14.0 km/h 20.4 km/h 81% 0.0 mm CLR
23:54 25.8 °C 22.3 °C 1010.9 hPa NNE 14.0 km/h 14.8 km/h 81% 0.0 mm CLR
23:59 25.7 °C 22.4 °C 1010.9 hPa East 13.0 km/h 22.2 km/h 82% 0.0 mm CLR
Murcia-Puente Tocinos, España
Compliments of Weather Underground - 2.75 mb

La estación de MeteoMurcia.com, publica sus datos en los siguientes proyectos:

Weather Underground PWS IMURCIAP2 Meteoclimatic www.awekas.at

W3Counter
Web Analytics